[[{"header":{"parameterUnit":"m.s-1","parameterCategory":1,"la1":30.2991,"la2":30.254,"lo1":-89.0895,"lo2":-89.0444,"dy":0.0017,"dx":0.0017,"nx":28,"ny":28,"refTime":"2024-04-22T09:00:00:Z","depth":0,"parameterNumber":2,"parameterNumberName":"U-component_of_WINDS"},"data":[0,0,0,0,0,0,0,0,0,0,0,0,0,0,0,0,0,0,0,0,0,0,0,0,0,0,0,0,0,0,0,0,0,0,0,0,0,0,0,0,0,0,0,0,0,0,0,0,0,0,0,0,0,0,0,0,0,0,-1.063,-1.0631,0,-1.064,-1.064,-1.064,-1.0572,-1.057,-1.0568,-1.0567,-1.058,-1.0582,-1.0584,0,0,0,0,0,0,0,0,0,0,0,0,0,-1.0555,-1.0556,-1.063,-1.0631,-1.0631,-1.064,-1.064,-1.064,-1.0573,-1.057,-1.0568,-1.0566,-1.0579,-1.0582,-1.0584,0,0,0,0,0,0,0,0,0,0,0,0,0,-1.0579,-1.0557,-1.063,-1.0598,-1.0595,-1.064,-1.064,-1.064,-1.0573,-1.057,-1.0567,-1.0565,-1.0578,-1.0581,-1.0585,-1.0662,0,0,-1.0594,-1.0596,0,0,0,0,0,0,0,0,-1.0577,-1.0581,-1.0603,-1.06,-1.0597,-1.0602,-1.0618,-1.0648,-1.0574,-1.0582,-1.0567,-1.0563,-1.059,-1.0592,-1.06,-1.0663,-1.0663,-1.0595,-1.0597,-1.0598,-1.0599,0,0,0,0,0,0,0,-1.0576,-1.0581,-1.0634,-1.0603,-1.06,-1.0583,-1.0584,-1.0624,-1.0602,-1.0581,-1.0576,-1.0578,-1.0588,-1.0597,-1.06,-1.0664,-1.0595,-1.0597,-1.0599,-1.0601,-1.079,-1.0793,0,0,0,0,0,0,-1.0578,-1.058,-1.0634,-1.0635,-1.058,-1.0587,-1.0587,-1.0603,-1.0601,-1.0598,-1.058,-1.0574,-1.0593,-1.0596,-1.06,-1.0691,-1.0598,-1.0601,-1.0603,-1.0787,-1.079,-1.0794,0,0,0,0,0,0,-1.0577,-1.0584,-1.0634,-1.0606,-1.0611,-1.0591,-1.061,-1.0605,-1.0615,-1.0601,-1.0597,-1.0594,-1.0591,-1.0596,-1.0647,-1.0691,-1.0602,-1.0605,-1.0783,-1.0788,-1.0792,-1.0874,0,0,0,0,0,0,-1.0575,-1.0583,-1.0613,-1.0607,-1.0613,-1.068,-1.0613,-1.0607,-1.062,-1.0613,-1.0612,-1.061,-1.0589,-1.0642,-1.065,-1.0693,-1.0608,-1.0779,-1.0785,-1.0791,-1.0867,-1.088,-1.0892,0,0,0,0,0,-1.0572,-1.0636,-1.0615,-1.0622,-1.0649,-1.0683,-1.0686,-1.066,-1.0624,-1.0653,-1.0644,-1.061,-1.0684,-1.0648,-1.0656,-1.0701,-1.0776,-1.0783,-1.079,-1.0861,-1.0878,-1.0892,0,0,0,0,0,0,-1.065,-1.0635,-1.0611,-1.0675,-1.068,-1.0671,-1.0708,-1.0679,-1.0696,-1.0689,-1.0656,-1.0657,-1.0714,-1.0712,-1.0673,-1.0776,-1.0724,-1.0733,-1.0775,-1.0791,-1.0803,-1.0803,-1.0611,0,0,0,0,0,-1.0673,-1.0702,-1.0688,-1.0745,-1.0749,-1.0728,-1.0742,-1.0721,-1.0726,-1.0729,-1.0723,-1.0731,-1.0755,-1.0772,-1.0794,-1.0865,-1.0865,-1.09,-1.0913,-1.0923,-1.0932,-1.0969,-1.0985,-1.0817,-1.0816,-1.0816,0,0,-1.0725,-1.072,-1.074,-1.0761,-1.0763,-1.0793,-1.0731,-1.0766,-1.0789,-1.0735,-1.0783,-1.0779,-1.0784,-1.0846,-1.0872,-1.0846,-1.0977,-1.0932,-1.094,-1.0943,-1.0978,-1.0994,-1.1008,-1.0821,-1.082,-1.082,0,0,-1.0833,-1.0832,-1.088,-1.0882,-1.0885,-1.087,-1.0882,-1.0877,-1.0872,-1.0919,-1.0879,-1.0905,-1.0948,-1.0954,-1.0962,-1.107,-1.1039,-1.1078,-1.1144,-1.1181,-1.1194,-1.1206,-1.1245,-1.126,-1.1086,-1.1086,-1.1087,0,-1.0897,-1.094,-1.0908,-1.0946,-1.0956,-1.0906,-1.0954,-1.0959,-1.097,-1.0978,-1.0948,-1.1,-1.1,-1.1062,-1.1088,-1.1097,-1.1109,-1.1079,-1.1195,-1.1206,-1.1216,-1.1254,-1.1268,-1.1091,-1.1091,-1.109,-1.109,0,-1.1018,-1.1049,-1.1087,-1.1097,-1.1111,-1.1154,-1.1129,-1.1147,-1.1124,-1.1113,-1.1161,-1.1159,-1.118,-1.1192,-1.1171,-1.1251,-1.1235,-1.12,-1.1148,-1.1238,-1.1272,-1.1286,-1.1098,-1.1096,-1.1095,-1.1094,0,0,-1.1179,-1.1168,-1.1183,-1.1187,-1.1185,-1.1209,-1.1249,-1.1267,-1.1284,-1.1292,-1.1326,-1.1362,-1.1329,-1.1339,-1.1317,-1.1349,-1.1435,-1.131,-1.131,-1.1335,-1.1524,-1.1552,-1.1569,-1.1414,-1.1416,-1.1418,-1.1524,0,-1.1286,-1.1353,-1.1324,-1.1395,-1.1423,-1.1375,-1.1409,-1.1413,-1.1402,-1.1425,-1.1413,-1.144,-1.1394,-1.14,-1.1429,-1.1419,-1.1473,-1.141,-1.1446,-1.1448,-1.1448,-1.1586,-1.1616,-1.1716,-1.1537,-1.1539,-1.1541,0,-1.142,-1.1432,-1.1506,-1.1497,-1.1508,-1.154,-1.1554,-1.1576,-1.1578,-1.1568,-1.1578,-1.1548,-1.1587,-1.1533,-1.1586,-1.1544,-1.1557,-1.1554,-1.1557,-1.1561,-1.1502,-1.1596,-1.1747,-1.1763,-1.1562,-1.156,-1.1559,0,-1.1532,-1.1566,-1.1614,-1.1618,-1.161,-1.1634,-1.1631,-1.163,-1.1643,-1.1655,-1.1663,-1.168,-1.169,-1.1704,-1.168,-1.1642,-1.1737,-1.1681,-1.1731,-1.1732,-1.1755,-1.1755,-1.1912,-1.176,-1.176,-1.176,-1.1759,0,-1.1655,-1.1703,-1.1664,-1.1694,-1.1745,-1.171,-1.1762,-1.1754,-1.1753,-1.1781,-1.174,-1.1767,-1.1733,-1.1756,-1.1738,-1.1785,-1.179,-1.1783,-1.1778,-1.1788,-1.1789,-1.1798,-1.1791,-1.1763,-1.1763,-1.1762,-1.1761,0,-1.179,-1.1766,-1.1815,-1.1802,-1.1799,-1.1838,-1.1827,-1.1854,-1.1839,-1.1875,-1.1881,-1.1859,-1.1884,-1.1861,-1.1886,-1.1873,-1.1937,-1.1921,-1.1936,-1.1933,-1.1985,-1.1981,-1.2155,-1.2177,-1.2009,-1.2011,-1.2012,0,-1.1872,-1.1906,-1.1896,-1.1911,-1.1911,-1.1936,-1.1947,-1.1914,-1.1929,-1.1932,-1.1959,-1.1981,-1.1997,-1.204,-1.2027,-1.2045,-1.203,-1.209,-1.2033,-1.2042,-1.2033,-1.2032,-1.2036,-1.2103,-1.2105,-1.2106,-1.2107,0,-1.202,-1.2005,-1.2023,-1.2037,-1.2052,-1.2062,-1.2068,-1.2083,-1.2048,-1.2067,-1.2091,-1.2104,-1.2128,-1.215,-1.2164,-1.2162,-1.213,-1.2125,-1.2138,-1.215,-1.2158,-1.2155,-1.197,-1.2122,-1.212,-1.2119,-1.2119,-1.2118,-1.2131,-1.2159,-1.2156,-1.2178,-1.2178,-1.2185,-1.2209,-1.2196,-1.2216,-1.2233,-1.2211,-1.2242,-1.2242,-1.2257,-1.2259,-1.2283,-1.2258,-1.2276,-1.2281,-1.2287,-1.2295,-1.2152,-1.2285,-1.2284,-1.2284,-1.2284,-1.2283,0,-1.2278,-1.2273,-1.2292,-1.2302,-1.2318,-1.2283,-1.2288,-1.2305,-1.2332,-1.2334,-1.2349,-1.2378,-1.2399,-1.2385,-1.2403,-1.2425,-1.2411,-1.2431,-1.243,-1.243,-1.2316,-1.2303,-1.2442,-1.2442,-1.2442,-1.2442,-1.2442,-1.2442,-1.2357,-1.2403,-1.2388,-1.2433,-1.2427,-1.2456,-1.2462,-1.2468,-1.2469,-1.2502,-1.2518,-1.2509,-1.2504,-1.2521,-1.2539,-1.2534,-1.2544,-1.257,-1.2561,-1.2454,-1.2439,-1.2424,-1.2412,-1.2572,-1.2572,-1.2673,-1.2674,-1.2675]},{"header":{"parameterUnit":"m.s-1","parameterCategory":1,"la1":30.2991,"la2":30.254,"lo1":-89.0895,"lo2":-89.0444,"dy":0.0017,"dx":0.0017,"nx":28,"ny":28,"refTime":"2024-04-22T09:00:00:Z","depth":0,"parameterNumber":3,"parameterNumberName":"V-component_of_WINDS"},"data":[0,0,0,0,0,0,0,0,0,0,0,0,0,0,0,0,0,0,0,0,0,0,0,0,0,0,0,0,0,0,0,0,0,0,0,0,0,0,0,0,0,0,0,0,0,0,0,0,0,0,0,0,0,0,0,0,0,0,-7.7891,-7.7892,0,-7.8029,-7.8031,-7.8033,-7.7918,-7.7913,-7.7908,-7.7903,-7.804,-7.8047,-7.8055,0,0,0,0,0,0,0,0,0,0,0,0,0,-7.7519,-7.7527,-7.789,-7.7892,-7.7894,-7.8029,-7.8031,-7.8033,-7.7918,-7.7913,-7.7907,-7.7901,-7.8037,-7.8046,-7.8056,0,0,0,0,0,0,0,0,0,0,0,0,0,-7.7672,-7.7529,-7.789,-7.7853,-7.7851,-7.8029,-7.8031,-7.8033,-7.792,-7.7912,-7.7905,-7.7898,-7.8034,-7.8045,-7.8057,-7.8277,0,0,-7.8095,-7.81,0,0,0,0,0,0,0,0,-7.7663,-7.7685,-7.7857,-7.7856,-7.7854,-7.7949,-7.795,-7.8115,-7.7921,-7.7894,-7.7903,-7.7895,-7.8015,-7.8028,-7.807,-7.8283,-7.8289,-7.8096,-7.8103,-7.8108,-7.8112,0,0,0,0,0,0,0,-7.7653,-7.7679,-7.7945,-7.7859,-7.7858,-7.7828,-7.7841,-7.7981,-7.7993,-7.7895,-7.7887,-7.7906,-7.8013,-7.8058,-7.8072,-7.8291,-7.8095,-7.8106,-7.8114,-7.8118,-7.869,-7.8698,0,0,0,0,0,0,-7.7647,-7.7671,-7.7941,-7.7949,-7.7739,-7.784,-7.7855,-7.7926,-7.7991,-7.7994,-7.7912,-7.79,-7.8041,-7.8058,-7.8076,-7.8337,-7.8108,-7.812,-7.8127,-7.8683,-7.8692,-7.8701,0,0,0,0,0,0,-7.7639,-7.7672,-7.7935,-7.7808,-7.7839,-7.7854,-7.7934,-7.7932,-7.7978,-7.8003,-7.8004,-7.7957,-7.8036,-7.8059,-7.8228,-7.834,-7.8125,-7.8136,-7.8673,-7.8686,-7.8696,-7.8862,0,0,0,0,0,0,-7.7629,-7.767,-7.7755,-7.7811,-7.7847,-7.8087,-7.7941,-7.794,-7.8,-7.7986,-7.8046,-7.8049,-7.8032,-7.8211,-7.824,-7.8353,-7.8146,-7.8663,-7.8679,-7.8693,-7.8846,-7.8878,-7.8905,0,0,0,0,0,-7.7616,-7.7795,-7.776,-7.7793,-7.7954,-7.8094,-7.8114,-7.8093,-7.801,-7.8094,-7.811,-7.8047,-7.8324,-7.8229,-7.8261,-7.838,-7.8656,-7.8674,-7.8692,-7.8833,-7.8871,-7.8904,0,0,0,0,0,0,-7.775,-7.7801,-7.7763,-7.7966,-7.8027,-7.8074,-7.818,-7.8134,-7.8219,-7.8202,-7.817,-7.8184,-7.8362,-7.8387,-7.8281,-7.8595,-7.8476,-7.8501,-7.8572,-7.8609,-7.8638,-7.8628,-7.8156,0,0,0,0,0,-7.7803,-7.7915,-7.7953,-7.8127,-7.816,-7.8166,-7.8226,-7.8205,-7.8265,-7.829,-7.8318,-7.8378,-7.8478,-7.8545,-7.8638,-7.8849,-7.886,-7.8946,-7.8975,-7.8999,-7.9021,-7.9134,-7.9173,-7.8759,-7.8759,-7.8759,0,0,-7.7913,-7.7956,-7.8028,-7.8155,-7.82,-7.8315,-7.8188,-7.8314,-7.8398,-7.8308,-7.847,-7.8493,-7.8557,-7.8749,-7.8834,-7.8775,-7.9138,-7.9022,-7.9041,-7.905,-7.9156,-7.9195,-7.923,-7.8771,-7.8769,-7.8767,0,0,-7.8174,-7.8217,-7.8368,-7.8416,-7.8485,-7.8488,-7.8524,-7.8579,-7.8592,-7.8754,-7.8689,-7.8787,-7.8961,-7.9009,-7.9057,-7.9336,-7.928,-7.9366,-7.9519,-7.9629,-7.9662,-7.969,-7.979,-7.9826,-7.9388,-7.9389,-7.9389,0,-7.8302,-7.8474,-7.845,-7.8582,-7.864,-7.8566,-7.8717,-7.8763,-7.8859,-7.89,-7.8833,-7.9049,-7.9087,-7.9288,-7.9357,-7.9398,-7.9437,-7.936,-7.9659,-7.9688,-7.9714,-7.9809,-7.9846,-7.9399,-7.9398,-7.9397,-7.9396,0,-7.8628,-7.8748,-7.8861,-7.8958,-7.9028,-7.9169,-7.9165,-7.9238,-7.9211,-7.922,-7.9385,-7.9428,-7.9529,-7.9575,-7.9549,-7.9773,-7.9734,-7.9664,-7.9544,-7.9764,-7.9852,-7.9888,-7.9413,-7.941,-7.9407,-7.9404,0,0,-7.8976,-7.9059,-7.9101,-7.9144,-7.9216,-7.9307,-7.9444,-7.9545,-7.9608,-7.9677,-7.979,-7.9938,-7.9874,-7.9928,-7.9906,-8.0003,-8.0221,-7.9921,-7.9922,-7.9975,-8.047,-8.0522,-8.0565,-8.0185,-8.0191,-8.0197,-8.0464,0,-7.9239,-7.948,-7.9463,-7.9689,-7.9799,-7.973,-7.9848,-7.9904,-7.9916,-8.0009,-8.0021,-8.0127,-8.0035,-8.0067,-8.0159,-8.0175,-8.032,-8.0155,-8.0288,-8.0293,-8.0275,-8.0611,-8.0667,-8.0917,-8.0499,-8.0504,-8.0509,0,-7.9579,-7.9662,-7.99,-7.9955,-8.0001,-8.0109,-8.0199,-8.029,-8.0351,-8.0353,-8.0414,-8.0376,-8.0511,-8.0388,-8.0574,-8.0463,-8.0515,-8.0531,-8.054,-8.0552,-8.0414,-8.0631,-8.0997,-8.1035,-8.0563,-8.0558,-8.0554,0,-7.981,-7.998,-8.0145,-8.0184,-8.0252,-8.0329,-8.0361,-8.0415,-8.0477,-8.0556,-8.0595,-8.0688,-8.0739,-8.081,-8.0798,-8.0709,-8.0987,-8.0863,-8.0991,-8.0992,-8.1053,-8.1049,-8.1432,-8.1087,-8.1086,-8.1086,-8.1085,0,-8.0106,-8.0254,-8.0249,-8.0351,-8.0514,-8.0491,-8.0653,-8.0675,-8.0724,-8.0827,-8.0771,-8.0869,-8.0846,-8.0942,-8.0932,-8.1087,-8.111,-8.1114,-8.111,-8.112,-8.1119,-8.1154,-8.1136,-8.1096,-8.1093,-8.1091,-8.109,0,-8.0391,-8.0394,-8.0569,-8.062,-8.0636,-8.0754,-8.0797,-8.0891,-8.0898,-8.1029,-8.1058,-8.1069,-8.1179,-8.1174,-8.1298,-8.1291,-8.1482,-8.1457,-8.1463,-8.1458,-8.1586,-8.1574,-8.2005,-8.206,-8.1679,-8.1683,-8.1686,0,-8.058,-8.0693,-8.0756,-8.0823,-8.086,-8.0967,-8.103,-8.1011,-8.1079,-8.1158,-8.1243,-8.1348,-8.1431,-8.161,-8.1628,-8.1722,-8.1699,-8.1843,-8.1712,-8.1719,-8.1701,-8.1695,-8.1706,-8.1869,-8.1873,-8.1877,-8.188,0,-8.0915,-8.0911,-8.1006,-8.1102,-8.118,-8.1253,-8.1321,-8.1377,-8.1365,-8.1444,-8.1558,-8.1623,-8.175,-8.1855,-8.1945,-8.1975,-8.1926,-8.1921,-8.1955,-8.1966,-8.1965,-8.1968,-8.1533,-8.1911,-8.1908,-8.1905,-8.1904,-8.1902,-8.1158,-8.1255,-8.1315,-8.1423,-8.1472,-8.1536,-8.1628,-8.1648,-8.1743,-8.1847,-8.1829,-8.1956,-8.2012,-8.2129,-8.2167,-8.2265,-8.2213,-8.2263,-8.2276,-8.2289,-8.2303,-8.195,-8.2281,-8.228,-8.2279,-8.2278,-8.2278,0,-8.149,-8.1526,-8.1625,-8.1722,-8.1807,-8.1755,-8.1827,-8.19,-8.2013,-8.2071,-8.2155,-8.2285,-8.2386,-8.2412,-8.251,-8.2582,-8.2562,-8.2609,-8.2603,-8.2611,-8.2344,-8.2305,-8.2623,-8.2623,-8.2623,-8.2623,-8.2623,-8.2623,-8.1673,-8.1835,-8.1838,-8.2023,-8.2056,-8.2182,-8.2228,-8.2287,-8.2333,-8.2482,-8.2567,-8.2583,-8.2629,-8.2729,-8.2819,-8.2823,-8.2862,-8.2918,-8.2913,-8.2664,-8.2629,-8.2596,-8.2559,-8.2926,-8.2926,-8.3171,-8.3174,-8.3176]}]]